Regional Weather Roundup
Issued by NWS

Home | Current Version | Previous Version | Text Only | Print | Product List | Glossary On
Versions: 1 2 3 4 5 6 7 8 9 10 11 12 13 14 15 16 17 18 19 20 21 22 23 24 25 26 27 28 29 30 31 32 33 34 35 36 37 38 39 40 41 42 43 44 45 46 47 48 49 50
778
ASUS44 KLUB 061501
RWRTX
WEST TEXAS WEATHER ROUNDUP
NATIONAL WEATHER SERVICE LUBBOCK TX
900 AM CST SAT FEB 06 2016

NOTE: "FAIR" INDICATES FEW OR NO CLOUDS BELOW 12,000 FEET WITH NO
SIGNIFICANT WEATHER AND/OR OBSTRUCTIONS TO VISIBILITY.

TXZ004-006>008-010-012-014-016-OKZ002-061600-
TEXAS PANHANDLE/OKLAHOMA PANHANDLE

CITY           SKY/WX    TMP DP  RH WIND       PRES   REMARKS
AMARILLO       SUNNY     30  18  60 W8        30.38R WCI  22
BORGER         SUNNY     27  16  63 W9        30.38R WCI  18
CANADIAN       SUNNY     27  22  82 CALM      30.38S
DALHART        SUNNY     25  15  66 W6        30.36R WCI  18
DUMAS          CLOUDY    25  16  68 W9        30.36R WCI  15
GUYMON         CLOUDY    27  16  63 W12       30.34S WCI  17
$$

TXZ026-029-035-045-048-061600-
SOUTHERN PANHANDLE/SOUTH PLAINS/ROLLING PLAINS

CITY           SKY/WX    TMP DP  RH WIND       PRES   REMARKS
CHILDRESS      SUNNY     32  20  61 NW9       30.41R WCI  24
LUBBOCK        MOSUNNY   27  18  69 NW6       30.41R WCI  20
SNYDER           N/A     34  21  59 NW8       30.43R WCI  27
$$

TXZ052-054-060>062-072-078-127-140-154-169-061600-
PERMIAN BASIN/CONCHO VALLEY/BIG COUNTRY/EDWARDS PLATEAU

CITY           SKY/WX    TMP DP  RH WIND       PRES   REMARKS
ABILENE        SUNNY     38  21  50 NW17      30.40R WCI  28
BROWNWOOD      SUNNY     41  23  48 NW18      30.39R
JUNCTION       SUNNY     38  22  52 CALM      30.43R
MIDLAND        SUNNY     36  20  52 NW9       30.45R WCI  29
ODESSA         SUNNY     36  19  50 NW8       30.45R WCI  30
SAN ANGELO     SUNNY     37  21  52 W12       30.44R WCI  29
WINK           SUNNY     30  17  58 N3        30.45R
$$

TXZ055-058-074-075-080-082-061600-
FAR WEST/SOUTHWEST MOUNTAINS/TRANS PECOS

CITY           SKY/WX    TMP DP  RH WIND       PRES   REMARKS
DRYDEN           N/A     43  18  36 W6        30.45R
EL PASO        SUNNY     27   7  42 CALM      30.48R
FORT STOCKTON  SUNNY     37  19  48 SW12      30.45R WCI  29
GUADALUPE PASS CLOUDY    28   5  37 SW21      30.44R WCI  15
MARFA          CLOUDY    27  11  51 E3        30.48R
PRESIDIO       FAIR      37  10  32 N3        30.50R
$$

TXZ014-016-019-021>030-083-061600
TEXAS TECH WEST TEXAS MESONET/TEXAS PANHANDLE/NORTHERN SOUTH PLAINS

CITY           SKY/WX    TMP DP  RH WIND       PRES   REMARKS
ABERNATHY 5ENE   N/A     26  19  77 W5        30.41S WCI  20
AMARILLO 9NNE    N/A     20  16  82 S1        30.39F
AMARILLO 7SSE    N/A     22  17  79 W7        30.38S WCI  14
AMHERST 1NE      N/A     22  16  78 W5        30.40R WCI  16
BOOTLEG 11WNW    N/A     28  17  65 SW7       30.38S WCI  20
CANADIAN 6E      N/A     27  18  70 W7        30.35S WCI  19
CAPROCK CYN SP   N/A     33  18  55 W9        30.41R WCI  25
CHILDRESS 2NNE   N/A     29  21  70 W8        30.40R WCI  22
CLARENDON 2WSW   N/A     27  18  70 NW10      30.38R WCI  17
CLAUDE 12SW      N/A     27  15  62 W6        30.38R WCI  20
DIMMITT 2NE      N/A     28  19  70 W5        30.38S WCI  23
FLOYDADA 2NNE    N/A     25  19  77 W7        30.40R WCI  17
FRIONA 2NE       N/A     20  15  79 W3        30.39R
GOODLETT 3W      N/A     33  21  61 W12       30.41R WCI  24
HART 3N          N/A     19  15  82 NW2       30.39S
HEREFORD 2NW     N/A     21  14  76 W3        30.37R
MCLEAN 1E        N/A     29  17  62 W9        30.35S WCI  20
MEMPHIS 1NE      N/A     34  20  54 NW8       30.39S WCI  28
MULESHOE 2SSW    N/A     19  15  82 W5        30.40R WCI  13
OLTON 6S         N/A     22  16  77 W7        30.39S WCI  14
PALO DURO SP     N/A     24  15  68 W8        30.40R WCI  15
PAMPA 2E         N/A     25  18  74 W6        30.36R WCI  18
PLAINVIEW 1S     N/A     26  17  71 W7        30.40R WCI  18
SILVERTON 7ESE   N/A     26  19  72 W10       30.40R WCI  17
TULIA 2ENE       N/A     24  19  78 W7        30.39S WCI  16
TURKEY 2WSW      N/A     33  21  60 NW5       30.40R WCI  29
UMBARGER 3NNE    N/A     19  13  76 SW6       30.39R WCI  11
$$

TXZ033>036-039>041-045>048-061600
TEXAS TECH WEST TEXAS MESONET/SOUTH PLAINS

CITY           SKY/WX    TMP DP  RH WIND       PRES   REMARKS
AIKEN 3WSW       N/A     26  18  71 W9        30.41R WCI  17
ANDREWS 2NE      N/A     32  17  53 NW7       30.45R WCI  26
ANTON 6SSW       N/A     25  19  77 W3        30.42R
BROWNFIELD 2S    N/A     26  17  68 W6        30.43R WCI  19
DENVR CTY 7WNW   N/A     27  17  64 W6        30.41S WCI  20
GAIL 2ESE        N/A     31  20  62 NW7       30.43R WCI  25
LAMESA 2SE       N/A     28  19  67 NW8       30.45R WCI  20
LEVELLAND 4S     N/A     26  18  72 W5        30.41R WCI  20
MORTON 1ENE      N/A     23  16  75 W3        30.40S
ODONNELL 1N      N/A     28  19  66 NW10      30.43R WCI  19
PLAINS 3N        N/A     24  16  72 W6        30.41R WCI  16
RALLS 1SE        N/A     27  17  66 NW8       30.41S WCI  19
REESE CENTER     N/A     27  18  70 NW7       30.41R WCI  19
SEAGRAVES 1SW    N/A     26  18  71 W2        30.43R
SEMINOLE 2NNE    N/A     28  18  65 NW3       30.44R
SLATON 2NE       N/A     28  19  69 W10       30.42R WCI  19
SNYDER 3E        N/A     35  21  56 NW9       30.42R WCI  28
SUNDOWN 8SW      N/A     25  17  69 W5        30.41R WCI  20
TAHOKA 3NNE      N/A     29  18  62 NW7       30.42R WCI  22
WOLFFORTH 6SSW   N/A     28  17  62 W8        30.43R WCI  20
$$

TXZ031-032-036>038-042>044-061600-
TEXAS TECH WEST TEXAS MESONET/ROLLING PLAINS

CITY           SKY/WX    TMP DP  RH WIND       PRES   REMARKS
ASPERMONT 3NE    N/A     34  20  57 NW7       30.42S WCI  28
FLUVANNA 3WNW    N/A     34  20  56 NW8       30.42R WCI  28
GRAHAM 5SSW      N/A     29  19  63 W8        30.42R WCI  22
GUTHRIE 10WSW    N/A     34  19  54 NW7       30.40R WCI  28
HASKELL 1NW      N/A     36  21  55 NW15      30.41R WCI  26
JAYTON 1SSE      N/A     30  21  68 W8        30.42R WCI  22
KNOX CITY 3NW    N/A     36  22  56 W7        30.43R WCI  30
LK A HENRY 1NW   N/A     33  19  57 NW9       30.42S WCI  25
NORTHFIELD 1S    N/A     32  22  66 W2        30.41R
ODELL 4ENE       N/A     33  24  68 NW9       30.40R WCI  26
PADUCAH 10SW     N/A     34  20  57 NW13      30.41R WCI  25
POST 1NE         N/A     34  18  52 W8        30.42R WCI  27
RRING SPRGS 3N   N/A     32  20  62 W9        30.39R WCI  24
SEYMOUR 3NW      N/A     35  24  62 NW14      30.40R WCI  26
SPUR 1W          N/A     34  20  57 NW10      30.41R WCI  26
WEINERT 2NNE     N/A     36  22  56 W9        30.43R WCI  29
WHITE RVR 6NE    N/A     32  17  53 NW13      30.41R WCI  23
$$

TXZ052-054-060>062-072-078-127-140-154-169-061600-
TEXAS TECH WEST TEXAS MESONET/PERMIAN BASIN/
CONCHO VALLEY/BIG COUNTRY/EDWARDS PLATEAU

CITY           SKY/WX    TMP DP  RH WIND       PRES   REMARKS
COYANOSA 2N      N/A     30  16  56 W2        30.48R
JUNCTION 1SSW    N/A     35  23  61 S3        30.45R
MERTZON 3NNE     N/A     37  20  51 NW6       30.46R WCI  32
SAN ANGELO 7NW   N/A     35  19  51 W6        30.45R WCI  30
STRLNG CT 4WSW   N/A     33  20  59 W5        30.45R WCI  29
ST LAWRNCE 5SW   N/A     30  19  62 W8        30.44R WCI  23
SWEETWATR 11SW   N/A     34  22  61 W3        30.42R
WALL 1E          N/A     34  20  56 W7        30.45R WCI  28
$$

TXZ055-058-074-075-080-082-061600-
TEXAS TECH WEST TEXAS MESONET/FAR WEST/SOUTHWEST MOUNTAINS/TRANS PECOS

CITY           SKY/WX    TMP DP  RH WIND       PRES   REMARKS
PRSMN GAP BBNP   N/A     32   8  35 SW2       30.49R
GUADLPE MTN NP   N/A     41  -6  13 W20       30.40S
$$




USA.gov is the U.S. government's official web portal to all federal, state and local government web resources and services.